Time,TemperatureF,DewpointF,PressureIn,WindDirection,WindDirectionDegrees,WindSpeedMPH,WindSpeedGustMPH,Humidity,HourlyPrecipIn,Conditions,Clouds,dailyrainin,SoftwareType,DateUTC
2013-03-19 00:02:00,13.0,11.0,-100.00,West,270,0.0,1.0,90,-99.99,,,-99.99,,2013-03-19 05:02:00,
2013-03-19 00:12:00,13.0,11.0,-100.00,West,270,0.0,1.0,90,-99.99,,,-99.99,,2013-03-19 05:12:00,
2013-03-19 00:43:00,13.0,11.0,-100.00,West,275,0.0,1.0,89,-99.99,,,-99.99,,2013-03-19 05:43:00,
2013-03-19 00:52:00,13.0,11.0,-100.00,West,275,0.0,1.0,89,-99.99,,,-99.99,,2013-03-19 05:52:00,
2013-03-19 01:02:00,13.0,11.0,-100.00,West,275,0.0,1.0,89,-99.99,,,-99.99,,2013-03-19 06:02:00,
2013-03-19 01:12:00,13.0,11.0,-100.00,West,275,0.0,1.0,89,-99.99,,,-99.99,,2013-03-19 06:12:00,
2013-03-19 01:42:00,13.0,11.0,-100.00,West,275,0.0,1.0,90,-99.99,,,-99.99,,2013-03-19 06:42:00,
2013-03-19 01:52:00,13.0,11.0,-100.00,West,275,0.0,1.0,90,-99.99,,,-99.99,,2013-03-19 06:52:00,
2013-03-19 02:02:00,13.0,11.0,-100.00,West,275,0.0,1.0,90,-99.99,,,-99.99,,2013-03-19 07:02:00,
2013-03-19 02:12:00,13.0,11.0,-100.00,West,275,0.0,1.0,90,-99.99,,,-99.99,,2013-03-19 07:12:00,
2013-03-19 02:21:00,13.0,11.0,-100.00,West,275,0.0,1.0,90,-99.99,,,-99.99,,2013-03-19 07:21:00,
2013-03-19 02:22:00,13.0,10.0,-100.00,West,275,0.0,1.0,88,-99.99,,,-99.99,,2013-03-19 07:22:00,
2013-03-19 02:42:00,13.0,10.0,-100.00,West,275,0.0,1.0,88,-99.99,,,-99.99,,2013-03-19 07:42:00,
2013-03-19 02:53:00,13.0,10.0,-100.00,West,275,0.0,1.0,88,-99.99,,,-99.99,,2013-03-19 07:53:00,
2013-03-19 03:03:00,13.0,10.0,-100.00,West,275,0.0,1.0,88,-99.99,,,-99.99,,2013-03-19 08:03:00,
2013-03-19 03:12:00,13.0,10.0,-100.00,West,275,0.0,1.0,88,-99.99,,,-99.99,,2013-03-19 08:12:00,
2013-03-19 03:20:00,12.0,9.0,-100.00,West,280,0.0,1.0,88,-99.99,,,-99.99,,2013-03-19 08:20:00,
2013-03-19 03:43:00,12.0,9.0,-100.00,West,280,0.0,1.0,88,-99.99,,,-99.99,,2013-03-19 08:43:00,
2013-03-19 03:52:00,12.0,9.0,-100.00,West,280,0.0,1.0,88,-99.99,,,-99.99,,2013-03-19 08:52:00,
2013-03-19 04:02:00,12.0,9.0,-100.00,West,280,0.0,1.0,88,-99.99,,,-99.99,,2013-03-19 09:02:00,
2013-03-19 04:12:00,12.0,9.0,-100.00,West,280,0.0,1.0,88,-99.99,,,-99.99,,2013-03-19 09:12:00,
2013-03-19 04:20:00,11.0,7.0,-100.00,West,275,0.0,1.0,87,-99.99,,,-99.99,,2013-03-19 09:20:00,
2013-03-19 04:43:00,11.0,7.0,-100.00,West,275,0.0,1.0,87,-99.99,,,-99.99,,2013-03-19 09:43:00,
2013-03-19 04:53:00,11.0,7.0,-100.00,West,275,0.0,1.0,87,-99.99,,,-99.99,,2013-03-19 09:53:00,
2013-03-19 05:03:00,11.0,7.0,-100.00,West,275,0.0,1.0,87,-99.99,,,-99.99,,2013-03-19 10:03:00,
2013-03-19 05:12:00,11.0,7.0,-100.00,West,275,0.0,1.0,87,-99.99,,,-99.99,,2013-03-19 10:12:00,
2013-03-19 05:20:00,10.0,6.0,-100.00,WNW,285,0.0,1.0,86,-99.99,,,-99.99,,2013-03-19 10:20:00,
2013-03-19 05:42:00,10.0,6.0,-100.00,WNW,285,0.0,1.0,86,-99.99,,,-99.99,,2013-03-19 10:42:00,
2013-03-19 05:53:00,10.0,6.0,-100.00,WNW,285,0.0,1.0,86,-99.99,,,-99.99,,2013-03-19 10:53:00,
2013-03-19 06:02:00,10.0,6.0,-100.00,WNW,285,0.0,1.0,86,-99.99,,,-99.99,,2013-03-19 11:02:00,
2013-03-19 06:12:00,10.0,6.0,-100.00,WNW,285,0.0,1.0,86,-99.99,,,-99.99,,2013-03-19 11:12:00,
2013-03-19 06:21:00,9.0,6.0,-100.00,West,280,0.0,1.0,85,-99.99,,,-99.99,,2013-03-19 11:21:00,
2013-03-19 06:43:00,9.0,6.0,-100.00,West,280,0.0,1.0,85,-99.99,,,-99.99,,2013-03-19 11:43:00,
2013-03-19 06:52:00,9.0,6.0,-100.00,West,280,0.0,1.0,85,-99.99,,,-99.99,,2013-03-19 11:52:00,
2013-03-19 07:02:00,9.0,6.0,-100.00,West,280,0.0,1.0,85,-99.99,,,-99.99,,2013-03-19 12:02:00,
2013-03-19 07:12:00,9.0,6.0,-100.00,West,280,0.0,1.0,85,-99.99,,,-99.99,,2013-03-19 12:12:00,
2013-03-19 07:20:00,9.0,6.0,-100.00,WNW,285,0.0,1.0,85,-99.99,,,-99.99,,2013-03-19 12:20:00,
2013-03-19 07:43:00,9.0,6.0,-100.00,WNW,285,0.0,1.0,85,-99.99,,,-99.99,,2013-03-19 12:43:00,
2013-03-19 07:52:00,9.0,6.0,-100.00,WNW,285,0.0,1.0,85,-99.99,,,-99.99,,2013-03-19 12:52:00,
2013-03-19 08:02:00,9.0,6.0,-100.00,WNW,285,0.0,1.0,85,-99.99,,,-99.99,,2013-03-19 13:02:00,
2013-03-19 08:12:00,9.0,6.0,-100.00,WNW,285,0.0,1.0,85,-99.99,,,-99.99,,2013-03-19 13:12:00,
2013-03-19 08:42:00,9.0,5.0,-100.00,WNW,290,0.0,1.0,83,-99.99,,,-99.99,,2013-03-19 13:42:00,
2013-03-19 08:53:00,9.0,5.0,-100.00,WNW,290,0.0,1.0,83,-99.99,,,-99.99,,2013-03-19 13:53:00,
2013-03-19 09:02:00,9.0,5.0,-100.00,WNW,290,0.0,1.0,83,-99.99,,,-99.99,,2013-03-19 14:02:00,
2013-03-19 09:12:00,9.0,5.0,-100.00,WNW,290,0.0,1.0,83,-99.99,,,-99.99,,2013-03-19 14:12:00,
2013-03-19 09:21:00,10.0,5.0,-100.00,WNW,295,0.0,1.0,82,-99.99,,,-99.99,,2013-03-19 14:21:00,
2013-03-19 09:42:00,10.0,5.0,-100.00,WNW,295,0.0,1.0,82,-99.99,,,-99.99,,2013-03-19 14:42:00,
2013-03-19 09:52:00,10.0,5.0,-100.00,WNW,295,0.0,1.0,82,-99.99,,,-99.99,,2013-03-19 14:52:00,
2013-03-19 10:02:00,10.0,5.0,-100.00,WNW,295,0.0,1.0,82,-99.99,,,-99.99,,2013-03-19 15:02:00,
2013-03-19 10:12:00,10.0,5.0,-100.00,WNW,295,0.0,1.0,82,-99.99,,,-99.99,,2013-03-19 15:12:00,
2013-03-19 10:23:00,12.0,6.0,-100.00,West,280,0.0,1.0,76,-99.99,,,-99.99,,2013-03-19 15:23:00,
2013-03-19 10:44:00,12.0,6.0,-100.00,West,280,0.0,1.0,76,-99.99,,,-99.99,,2013-03-19 15:44:00,
2013-03-19 10:53:00,12.0,6.0,-100.00,West,280,0.0,1.0,76,-99.99,,,-99.99,,2013-03-19 15:53:00,
2013-03-19 11:04:00,12.0,6.0,-100.00,West,280,0.0,1.0,76,-99.99,,,-99.99,,2013-03-19 16:04:00,
2013-03-19 11:13:00,12.0,6.0,-100.00,West,280,0.0,1.0,76,-99.99,,,-99.99,,2013-03-19 16:13:00,
2013-03-19 11:22:00,15.0,6.0,-100.00,WNW,295,0.0,1.0,67,-99.99,,,-99.99,,2013-03-19 16:22:00,
2013-03-19 11:44:00,15.0,6.0,-100.00,WNW,295,0.0,1.0,67,-99.99,,,-99.99,,2013-03-19 16:44:00,
2013-03-19 11:54:00,15.0,6.0,-100.00,WNW,295,0.0,1.0,67,-99.99,,,-99.99,,2013-03-19 16:54:00,
2013-03-19 12:03:00,15.0,6.0,-100.00,WNW,295,0.0,1.0,67,-99.99,,,-99.99,,2013-03-19 17:03:00,
2013-03-19 12:13:00,15.0,6.0,-100.00,WNW,295,0.0,1.0,67,-99.99,,,-99.99,,2013-03-19 17:13:00,
2013-03-19 12:22:00,17.0,7.0,-100.00,West,270,0.0,1.0,63,-99.99,,,-99.99,,2013-03-19 17:22:00,
2013-03-19 12:44:00,17.0,7.0,-100.00,West,270,0.0,1.0,63,-99.99,,,-99.99,,2013-03-19 17:44:00,
2013-03-19 12:53:00,17.0,7.0,-100.00,West,270,0.0,1.0,63,-99.99,,,-99.99,,2013-03-19 17:53:00,
2013-03-19 13:03:00,17.0,7.0,-100.00,West,270,0.0,1.0,63,-99.99,,,-99.99,,2013-03-19 18:03:00,
2013-03-19 13:13:00,17.0,7.0,-100.00,West,270,0.0,1.0,63,-99.99,,,-99.99,,2013-03-19 18:13:00,
2013-03-19 13:21:00,17.0,7.0,-100.00,West,270,0.0,1.0,63,-99.99,,,-99.99,,2013-03-19 18:21:00,
2013-03-19 13:44:00,17.0,7.0,-100.00,West,270,0.0,1.0,63,-99.99,,,-99.99,,2013-03-19 18:44:00,
2013-03-19 13:53:00,17.0,7.0,-100.00,West,270,0.0,1.0,63,-99.99,,,-99.99,,2013-03-19 18:53:00,
2013-03-19 14:02:00,17.0,7.0,-100.00,West,270,0.0,1.0,63,-99.99,,,-99.99,,2013-03-19 19:02:00,
2013-03-19 14:12:00,17.0,7.0,-100.00,West,270,0.0,1.0,63,-99.99,,,-99.99,,2013-03-19 19:12:00,
2013-03-19 14:21:00,20.0,6.0,-100.00,West,275,0.0,1.0,55,-99.99,,,-99.99,,2013-03-19 19:21:00,
2013-03-19 14:43:00,20.0,6.0,-100.00,West,275,0.0,1.0,55,-99.99,,,-99.99,,2013-03-19 19:43:00,
2013-03-19 14:53:00,20.0,6.0,-100.00,West,275,0.0,1.0,55,-99.99,,,-99.99,,2013-03-19 19:53:00,
2013-03-19 15:03:00,20.0,6.0,-100.00,West,275,0.0,1.0,55,-99.99,,,-99.99,,2013-03-19 20:03:00,
2013-03-19 15:12:00,20.0,6.0,-100.00,West,275,0.0,1.0,55,-99.99,,,-99.99,,2013-03-19 20:12:00,
2013-03-19 15:22:00,20.0,6.0,-100.00,West,270,0.0,1.0,55,-99.99,,,-99.99,,2013-03-19 20:22:00,
2013-03-19 15:43:00,20.0,6.0,-100.00,West,270,0.0,1.0,55,-99.99,,,-99.99,,2013-03-19 20:43:00,
2013-03-19 15:53:00,20.0,6.0,-100.00,West,270,0.0,1.0,55,-99.99,,,-99.99,,2013-03-19 20:53:00,
2013-03-19 16:02:00,20.0,6.0,-100.00,West,270,0.0,1.0,55,-99.99,,,-99.99,,2013-03-19 21:02:00,
2013-03-19 16:12:00,20.0,6.0,-100.00,West,270,0.0,1.0,55,-99.99,,,-99.99,,2013-03-19 21:12:00,
2013-03-19 16:22:00,21.0,6.0,-100.00,West,275,0.0,1.0,52,-99.99,,,-99.99,,2013-03-19 21:22:00,
2013-03-19 16:43:00,21.0,6.0,-100.00,West,275,0.0,1.0,52,-99.99,,,-99.99,,2013-03-19 21:43:00,
2013-03-19 16:53:00,21.0,6.0,-100.00,West,275,0.0,1.0,52,-99.99,,,-99.99,,2013-03-19 21:53:00,
2013-03-19 17:03:00,21.0,6.0,-100.00,West,275,0.0,1.0,52,-99.99,,,-99.99,,2013-03-19 22:03:00,
2013-03-19 17:12:00,21.0,6.0,-100.00,West,275,0.0,1.0,52,-99.99,,,-99.99,,2013-03-19 22:12:00,
2013-03-19 17:21:00,20.0,4.0,-100.00,West,280,0.0,1.0,50,-99.99,,,-99.99,,2013-03-19 22:21:00,
2013-03-19 17:44:00,20.0,4.0,-100.00,West,280,0.0,1.0,50,-99.99,,,-99.99,,2013-03-19 22:44:00,
2013-03-19 17:53:00,20.0,4.0,-100.00,West,280,0.0,1.0,50,-99.99,,,-99.99,,2013-03-19 22:53:00,
2013-03-19 18:02:00,20.0,4.0,-100.00,West,280,0.0,1.0,50,-99.99,,,-99.99,,2013-03-19 23:02:00,
2013-03-19 18:12:00,20.0,4.0,-100.00,West,280,0.0,1.0,50,-99.99,,,-99.99,,2013-03-19 23:12:00,
2013-03-19 18:22:00,20.0,4.0,-100.00,West,275,0.0,1.0,49,-99.99,,,-99.99,,2013-03-19 23:22:00,
2013-03-19 18:43:00,20.0,4.0,-100.00,West,275,0.0,1.0,49,-99.99,,,-99.99,,2013-03-19 23:43:00,
2013-03-19 18:53:00,20.0,4.0,-100.00,West,275,0.0,1.0,49,-99.99,,,-99.99,,2013-03-19 23:53:00,
2013-03-19 19:03:00,20.0,4.0,-100.00,West,275,0.0,1.0,49,-99.99,,,-99.99,,2013-03-20 00:03:00,
2013-03-19 19:13:00,20.0,4.0,-100.00,West,275,0.0,1.0,49,-99.99,,,-99.99,,2013-03-20 00:13:00,
2013-03-19 19:21:00,18.0,3.0,-100.00,West,275,0.0,1.0,51,-99.99,,,-99.99,,2013-03-20 00:21:00,
2013-03-19 19:43:00,18.0,3.0,-100.00,West,275,0.0,1.0,51,-99.99,,,-99.99,,2013-03-20 00:43:00,
2013-03-19 19:52:00,18.0,3.0,-100.00,West,275,0.0,1.0,51,-99.99,,,-99.99,,2013-03-20 00:52:00,
2013-03-19 20:03:00,18.0,3.0,-100.00,West,275,0.0,1.0,51,-99.99,,,-99.99,,2013-03-20 01:03:00,
2013-03-19 20:12:00,18.0,3.0,-100.00,West,275,0.0,1.0,51,-99.99,,,-99.99,,2013-03-20 01:12:00,
2013-03-19 20:22:00,17.0,3.0,-100.00,West,275,0.0,1.0,52,-99.99,,,-99.99,,2013-03-20 01:22:00,
2013-03-19 20:43:00,17.0,3.0,-100.00,West,275,0.0,1.0,52,-99.99,,,-99.99,,2013-03-20 01:43:00,
2013-03-19 20:53:00,17.0,3.0,-100.00,West,275,0.0,1.0,52,-99.99,,,-99.99,,2013-03-20 01:53:00,
2013-03-19 21:02:00,17.0,3.0,-100.00,West,275,0.0,1.0,52,-99.99,,,-99.99,,2013-03-20 02:02:00,
2013-03-19 21:12:00,17.0,3.0,-100.00,West,275,0.0,1.0,52,-99.99,,,-99.99,,2013-03-20 02:12:00,
2013-03-19 21:22:00,16.0,1.0,-100.00,West,275,0.0,1.0,53,-99.99,,,-99.99,,2013-03-20 02:22:00,
2013-03-19 21:43:00,16.0,1.0,-100.00,West,275,0.0,1.0,53,-99.99,,,-99.99,,2013-03-20 02:43:00,
2013-03-19 21:53:00,16.0,1.0,-100.00,West,275,0.0,1.0,53,-99.99,,,-99.99,,2013-03-20 02:53:00,
2013-03-19 22:02:00,16.0,1.0,-100.00,West,275,0.0,1.0,53,-99.99,,,-99.99,,2013-03-20 03:02:00,
2013-03-19 22:12:00,16.0,1.0,-100.00,West,275,0.0,1.0,53,-99.99,,,-99.99,,2013-03-20 03:12:00,
2013-03-19 22:21:00,14.0,1.0,-100.00,West,275,0.0,0.0,55,-99.99,,,-99.99,,2013-03-20 03:21:00,
2013-03-19 22:43:00,14.0,1.0,-100.00,West,275,0.0,0.0,55,-99.99,,,-99.99,,2013-03-20 03:43:00,
2013-03-19 22:53:00,14.0,1.0,-100.00,West,275,0.0,0.0,55,-99.99,,,-99.99,,2013-03-20 03:53:00,
2013-03-19 23:03:00,14.0,1.0,-100.00,West,275,0.0,0.0,55,-99.99,,,-99.99,,2013-03-20 04:03:00,
2013-03-19 23:12:00,14.0,1.0,-100.00,West,275,0.0,0.0,55,-99.99,,,-99.99,,2013-03-20 04:12:00,
2013-03-19 23:21:00,12.0,0.0,-100.00,West,280,0.0,0.0,58,-99.99,,,-99.99,,2013-03-20 04:21:00,
2013-03-19 23:43:00,12.0,0.0,-100.00,West,280,0.0,0.0,58,-99.99,,,-99.99,,2013-03-20 04:43:00,
2013-03-19 23:53:00,12.0,0.0,-100.00,West,280,0.0,0.0,58,-99.99,,,-99.99,,2013-03-20 04:53:00,